Weather History for KUDG - March, 2013

Change the Weather History Date:

Thursday, March 21, 2013

  Actual Average (KFLO) Record (KFLO)
Temperature  
Mean Temperature 44 °F 57 °F  
Max Temperature 53 °F 69 °F 89 °F (1968)
Min Temperature 35 °F 45 °F 26 °F (1965)
Degree Days  
Heating Degree Days 21 9  
Month to date heating degree days 234  
Since 1 July heating degree days 2300  
Cooling Degree Days 0 1  
Month to date cooling degree days 8  
Year to date cooling degree days 14  
Moisture  
Dew Point 16 °F    
Average Humidity 35    
Maximum Humidity 61    
Minimum Humidity 16    
Precipitation  
Precipitation 0.00 in 0.10 in 1.77 in (1970)
Month to date precipitation 2.29  
Year to date precipitation 8.44  
Sea Level Pressure  
Sea Level Pressure 29.85 in    
Wind  
Wind Speed 10 mph (NW)    
Max Wind Speed 20 mph    
Max Gust Speed 29 mph    
Visibility 10 miles    
Events      
T = Trace of Precipitation, MM = Missing Value Source: NWS Daily Summary

Daily Weather History Graph

Daily Weather History Graph

Search for Another Location

Airport or City:

Trip Planner

Search our weather history database for the weather conditions in past years. The results will help you decide how hot, cold, wet, or windy it might be!

Date:

Astronomy

Mar. 21, 2013 Rise Set
Actual Time 7:21 AM EDT 7:32 PM EDT
Civil Twilight 6:56 AM EDT 7:57 PM EDT
Nautical Twilight 6:27 AM EDT 8:26 PM EDT
Astronomical Twilight 5:57 AM EDT 8:56 PM EDT
Moon 2:12 PM EDT (3/21) 3:29 AM EDT (3/21)
Length of Visible Light 13h 00m
Length of Day
12h 10m
Waxing Gibbous, 68% of the Moon is Illuminated
Mar 21
Waxing Gibbous
Mar 27
Full
Apr 3
Last Quarter
Apr 10
New
Apr 18
First Quarter

Hourly Weather History & Observations

Time (EDT) Temp. Windchill Dew Point Humidity Pressure Visibility Wind Dir Wind Speed Gust Speed Precip Events Conditions
12:15 AM 41.0 °F 36.4 °F 24.8 °F 53% 29.80 in 10.0 mi South 6.9 mph - N/A   Clear
12:35 AM 39.2 °F 34.2 °F 26.6 °F 61% 29.80 in 10.0 mi South 6.9 mph - N/A   Clear
12:55 AM 41.0 °F 35.8 °F 24.8 °F 53% 29.79 in 10.0 mi SSW 8.1 mph - N/A   Clear
1:15 AM 39.2 °F 34.2 °F 24.8 °F 56% 29.79 in 10.0 mi SW 6.9 mph - N/A   Clear
1:35 AM 39.2 °F 33.6 °F 24.8 °F 56% 29.79 in 10.0 mi WSW 8.1 mph - N/A   Clear
1:55 AM 39.2 °F 33.0 °F 26.6 °F 61% 29.78 in 10.0 mi SW 9.2 mph - N/A   Clear
2:15 AM 39.2 °F 33.6 °F 24.8 °F 56% 29.77 in 10.0 mi WSW 8.1 mph - N/A   Clear
2:35 AM 39.2 °F 33.6 °F 24.8 °F 56% 29.78 in 10.0 mi West 8.1 mph - N/A   Clear
2:55 AM 42.8 °F 37.0 °F 24.8 °F 49% 29.77 in 10.0 mi West 10.4 mph - N/A   Clear
3:15 AM 42.8 °F 35.8 °F 24.8 °F 49% 29.77 in 10.0 mi NW 13.8 mph 19.6 mph N/A   Clear
3:35 AM 42.8 °F 35.8 °F 24.8 °F 49% 29.78 in 10.0 mi NW 13.8 mph - N/A   Clear
3:55 AM 42.8 °F 36.2 °F 24.8 °F 49% 29.78 in 10.0 mi NW 12.7 mph - N/A   Clear
4:15 AM 42.8 °F 35.1 °F 24.8 °F 49% 29.79 in 10.0 mi NW 16.1 mph 21.9 mph N/A   Clear
4:35 AM 42.8 °F 36.2 °F 24.8 °F 49% 29.80 in 10.0 mi NW 12.7 mph 16.1 mph N/A   Clear
4:55 AM 42.8 °F 36.6 °F 24.8 °F 49% 29.80 in 10.0 mi NW 11.5 mph - N/A   Clear
5:15 AM 39.2 °F 35.0 °F 24.8 °F 56% 29.81 in 10.0 mi NNW 5.8 mph - N/A   Clear
5:35 AM 39.2 °F 32.5 °F 24.8 °F 56% 29.81 in 10.0 mi NNW 10.4 mph - N/A   Clear
5:55 AM 39.2 °F 33.0 °F 21.2 °F 49% 29.82 in 10.0 mi NW 9.2 mph - N/A   Clear
6:15 AM 37.4 °F 32.1 °F 21.2 °F 52% 29.82 in 10.0 mi WNW 6.9 mph - N/A   Clear
6:35 AM 37.4 °F 32.8 °F 23.0 °F 56% 29.83 in 10.0 mi WNW 5.8 mph - N/A   Clear
6:55 AM 35.6 °F 28.0 °F 21.2 °F 56% 29.83 in 10.0 mi WNW 10.4 mph - N/A   Clear
7:15 AM 37.4 °F 30.8 °F 17.6 °F 45% 29.83 in 10.0 mi WNW 9.2 mph - N/A   Clear
7:35 AM 37.4 °F 31.4 °F 17.6 °F 45% 29.84 in 10.0 mi WNW 8.1 mph - N/A   Clear
7:55 AM 37.4 °F 31.4 °F 17.6 °F 45% 29.84 in 10.0 mi WNW 8.1 mph - N/A   Clear
8:15 AM 37.4 °F 30.8 °F 17.6 °F 45% 29.85 in 10.0 mi WNW 9.2 mph - N/A   Clear
8:35 AM 39.2 °F 32.0 °F 17.6 °F 42% 29.86 in 10.0 mi WNW 11.5 mph - N/A   Clear
8:55 AM 39.2 °F 33.0 °F 17.6 °F 42% 29.86 in 10.0 mi NW 9.2 mph - N/A   Clear
9:15 AM 41.0 °F 33.9 °F 15.8 °F 36% 29.86 in 10.0 mi NW 12.7 mph 18.4 mph N/A   Clear
9:35 AM 42.8 °F 36.2 °F 14.0 °F 31% 29.86 in 10.0 mi NW 12.7 mph - N/A   Clear
9:55 AM 42.8 °F 35.8 °F 14.0 °F 31% 29.87 in 10.0 mi NNW 13.8 mph - N/A   Clear
10:15 AM 44.6 °F 38.1 °F 12.2 °F 27% 29.86 in 10.0 mi NNW 13.8 mph - N/A   Clear
10:35 AM 44.6 °F 38.1 °F 12.2 °F 27% 29.86 in 10.0 mi NW 13.8 mph - N/A   Clear
10:55 AM 46.4 °F 40.7 °F 10.4 °F 23% 29.86 in 10.0 mi NNW 12.7 mph 18.4 mph N/A   Clear
11:15 AM 46.4 °F 41.1 °F 10.4 °F 23% 29.86 in 10.0 mi West 11.5 mph 18.4 mph N/A   Clear
11:35 AM 46.4 °F 39.8 °F 10.4 °F 23% 29.85 in 10.0 mi NNW 16.1 mph 23.0 mph N/A   Clear
11:55 AM 48.2 °F - 12.2 °F 24% 29.86 in 10.0 mi NW 17.3 mph 21.9 mph N/A   Clear
12:15 PM 48.2 °F - 10.4 °F 22% 29.85 in 10.0 mi NNW 6.9 mph - N/A   Clear
12:35 PM 48.2 °F - 10.4 °F 22% 29.85 in 10.0 mi WNW 17.3 mph 25.3 mph N/A   Clear
12:55 PM 48.2 °F - 10.4 °F 22% 29.84 in 10.0 mi WNW 15.0 mph 21.9 mph N/A   Clear
1:15 PM 50.0 °F - 12.2 °F 22% 29.84 in 10.0 mi West 12.7 mph 16.1 mph N/A   Clear
1:35 PM 51.8 °F - 12.2 °F 21% 29.83 in 10.0 mi WNW 11.5 mph 19.6 mph N/A   Clear
1:55 PM 51.8 °F - 10.4 °F 19% 29.83 in 10.0 mi NNW 13.8 mph 20.7 mph N/A   Clear
2:15 PM 51.8 °F - 10.4 °F 19% 29.83 in 10.0 mi West 15.0 mph 23.0 mph N/A   Clear
2:35 PM 51.8 °F - 12.2 °F 21% 29.82 in 10.0 mi NNW 12.7 mph 21.9 mph N/A   Clear
2:55 PM 51.8 °F - 10.4 °F 19% 29.82 in 10.0 mi West 13.8 mph 21.9 mph N/A   Clear
3:15 PM 53.6 °F - 12.2 °F 19% 29.81 in 10.0 mi West 15.0 mph 23.0 mph N/A   Clear
3:35 PM 53.6 °F - 10.4 °F 18% 29.81 in 10.0 mi WNW 15.0 mph 20.7 mph N/A   Clear
3:55 PM 53.6 °F - 8.6 °F 16% 29.81 in 10.0 mi NW 11.5 mph 23.0 mph N/A   Clear
4:15 PM 53.6 °F - 10.4 °F 18% 29.81 in 10.0 mi WNW 17.3 mph 28.8 mph N/A   Clear
4:35 PM 53.6 °F - 8.6 °F 16% 29.81 in 10.0 mi WNW 13.8 mph 27.6 mph N/A   Clear
4:55 PM 53.6 °F - 10.4 °F 18% 29.81 in 10.0 mi WNW 19.6 mph 26.5 mph N/A   Clear
5:15 PM 53.6 °F - 8.6 °F 16% 29.82 in 10.0 mi West 19.6 mph 26.5 mph N/A   Clear
5:35 PM 53.6 °F - 10.4 °F 18% 29.83 in 10.0 mi West 17.3 mph 24.2 mph N/A   Clear
5:55 PM 51.8 °F - 10.4 °F 19% 29.84 in 10.0 mi West 17.3 mph 25.3 mph N/A   Clear
6:15 PM 51.8 °F - 10.4 °F 19% 29.85 in 10.0 mi WNW 17.3 mph 24.2 mph N/A   Clear
6:35 PM 50.0 °F - 8.6 °F 19% 29.85 in 10.0 mi WNW 13.8 mph 27.6 mph N/A   Clear
6:55 PM 50.0 °F - 10.4 °F 20% 29.86 in 10.0 mi NW 18.4 mph - N/A   Clear
7:15 PM 48.2 °F - 10.4 °F 22% 29.87 in 10.0 mi NW 15.0 mph 19.6 mph N/A   Clear
7:35 PM 46.4 °F 41.9 °F 10.4 °F 23% 29.87 in 10.0 mi NW 9.2 mph - N/A   Clear
7:55 PM 44.6 °F 40.2 °F 12.2 °F 27% 29.88 in 10.0 mi NNW 8.1 mph - N/A   Clear
8:15 PM 44.6 °F 40.7 °F 12.2 °F 27% 29.89 in 10.0 mi NNW 6.9 mph - N/A   Clear
8:35 PM 42.8 °F 38.0 °F 14.0 °F 31% 29.90 in 10.0 mi North 8.1 mph - N/A   Clear
8:55 PM 42.8 °F 38.0 °F 14.0 °F 31% 29.91 in 10.0 mi NNW 8.1 mph - N/A   Clear
9:15 PM 41.0 °F 35.2 °F 15.8 °F 36% 29.92 in 10.0 mi North 9.2 mph - N/A   Clear
9:35 PM 41.0 °F 35.8 °F 14.0 °F 33% 29.93 in 10.0 mi North 8.1 mph - N/A   Clear
9:55 PM 41.0 °F 36.4 °F 12.2 °F 31% 29.94 in 10.0 mi North 6.9 mph - N/A   Clear
10:15 PM 39.2 °F 33.6 °F 12.2 °F 33% 29.95 in 10.0 mi North 8.1 mph - N/A   Clear
10:35 PM 39.2 °F 35.0 °F 12.2 °F 33% 29.96 in 10.0 mi North 5.8 mph - N/A   Clear
10:55 PM 37.4 °F 33.8 °F 14.0 °F 38% 29.97 in 10.0 mi North 4.6 mph - N/A   Clear
11:15 PM 35.6 °F 32.8 °F 14.0 °F 41% 29.98 in 10.0 mi North 3.5 mph - N/A   Clear
11:35 PM 35.6 °F 30.7 °F 15.8 °F 44% 29.98 in 10.0 mi North 5.8 mph - N/A   Clear
11:55 PM 35.6 °F 29.2 °F 14.0 °F 41% 29.98 in 10.0 mi North 8.1 mph - N/A   Clear